Regional Weather Roundup
Issued by NWS New Orleans/Baton Rouge, LA

Home | Current Version | Previous Version | Text Only | Print | Product List | Glossary On
Versions: 1 2 3 4 5 6 7 8 9 10 11 12 13 14 15 16 17 18 19 20 21 22 23 24 25 26 27 28 29 30 31 32 33 34 35 36 37 38 39 40 41 42 43 44 45 46 47 48 49 50
000
ASUS44 KLIX 301211
RWRLIX
NEW ORLEANS REGIONAL WEATHER ROUNDUP
NATIONAL WEATHER SERVICE NEW ORLEANS LA
700 AM CDT SAT MAY 30 2015

NOTE: "FAIR" INDICATES FEW OR NO CLOUDS BELOW 12,000 FEET WITH NO
      SIGNIFICANT WEATHER AND/OR OBSTRUCTIONS TO VISIBILITY.
      SKY/WX - SKY CONDITION AND SIGNIFICANT WEATHER.
      TMP - AIR TEMPERATURE.     DP    - DEWPOINT TEMPERATURE.
      RH  - RELATIVE HUMIDITY.   PRES  - PRESSURE.
      HI  - HEAT INDEX.          WCI   - WIND CHILL INDEX.

*  THESE STATIONS ARE NOT NWS OR FAA STATIONS AND ARE NOT UNDER
   NWS QUALITY CONTROL.

LAZ038-040-048-061>063-065>067-069-301300-
SOUTHEAST LOUISIANA

CITY           SKY/WX    TMP DP  RH WIND       PRES   REMARKS
N.O. AUDUBON     N/A     76  75  99 MISG        N/A
6HR MIN TEMP:  74; 6HR MAX TEMP:  76;

N.O. INTL ARPT PTSUNNY   76  72  87 CALM      30.05R
6HR MIN TEMP:  74; 6HR MAX TEMP:  76; 6HR PCP:  0.02;

N.O. LAKEFRONT SUNNY     79  73  82 SE3       30.06R
6HR MIN TEMP:  77; 6HR MAX TEMP:  79;

SLIDELL        MOSUNNY   71  70  96 N3        30.06R
6HR MIN TEMP:  68; 6HR MAX TEMP:  72;

BATON ROUGE    SUNNY     71  70  96 CALM      30.06R
6HR MIN TEMP:  70; 6HR MAX TEMP:  72;

BOOTHVILLE     SUNNY     77  73  87 E3        30.05S
6HR MIN TEMP:  75; 6HR MAX TEMP:  77;

BELLE CHASSE   MOSUNNY   72  70  93 CALM      30.05R FOG
6HR MIN TEMP:  69; 6HR MAX TEMP:  72; 6HR PCP: TRACE;

BOGALUSA*        N/A     69  66  90 CALM      30.08R FOG
6HR MIN TEMP:  68; 6HR MAX TEMP:  72;

GALLIANO*      SUNNY     69  68  94 CALM      30.05R
6HR MIN TEMP:  68; 6HR MAX TEMP:  74;

NEW ROADS*       N/A     73  72  98 CALM      30.05R
6HR MIN TEMP:  71; 6HR MAX TEMP:  73;

GONZALES*        N/A     70  70 100 CALM      30.05R
6HR MIN TEMP:  69; 6HR MAX TEMP:  73;

HAMMOND*       SUNNY     72  68  88 CALM      30.08R
HOUMA*         MOSUNNY   72  72 100 CALM      30.05R
PORT FOURCHON* MOSUNNY   79  72  78 SE5       30.05R

$$

MSZ070-080>082-301300-
SOUTHERN MISSISSIPPI

CITY           SKY/WX    TMP DP  RH WIND       PRES   REMARKS
MCCOMB         MOSUNNY   71  70  96 CALM      30.07R FOG
6HR MIN TEMP:  68; 6HR MAX TEMP:  71;

GULFPORT       PTSUNNY   74  70  87 NE3       30.06R
6HR MIN TEMP:  71; 6HR MAX TEMP:  79;

BILOXI         SUNNY     73  71  94 N2        30.06R
6HR MIN TEMP:  72; 6HR MAX TEMP:  79;

PASCAGOULA     MOSUNNY   70  69  97 CALM      30.07S
6HR MIN TEMP:  64; 6HR MAX TEMP:  70;

STENNIS ARPT*  MOSUNNY   72  68  88 MISG      30.06

$$

COASTAL OBSERVATIONS
LAKE AND NEARSHORE STATIONS

STATION/POSITION TIME  TEMP    WIND        PRES    WAVE
                       AIR SEA DIR/SP/G            HT/PER
                 (UTC) (F)     (DEG/KT/KT) (MB)    (FT/S)
PASCAGOULA       1100   74      CALM  /  3 1017.5
WAVELAND YACHT   1100   77 81   40/  3/  3 1017.7
GRAND ISLE       1100   79 83  160/  3/  6 1017.0
SOUTHWEST PASS   1100   78 75  120/  3/  4 1017.7
NEW CANAL        1100   75 81  140/  2/  3 1016.5
SHELL BEACH      1100   78 81  140/  5/  5 1016.8

OFFSHORE STATIONS

STATION/POSITION TIME  TEMP    WIND        PRES    WAVE
                       AIR SEA DIR/SP/G            HT/PER
                 (UTC) (F)     (DEG/KT/KT) (MB)    (FT/S)
64 S DAUPHIN ISL 1150   78 80  120/  8/  8 1018.1    3/ 6

$$




USA.gov is the U.S. government's official web portal to all federal, state and local government web resources and services.